When you browse on this site, cookies collect data to enhance your experience and personalize the content and advertising you see.
Visit our Privacy Policy to learn more. By continuing to use the site, you agree to this use of cookies and data.
  • In Deutschland
  • Länderverzeichnis
  • Für 7 Tage
  • Wassertemperatur
  • Wetterkarte
  • Widgets
  • user-avatar
    Anmelden

    Stündliche Wetter Saidpur

    Heute, 24 September, Dienstag

    Zeit Temperatur Niederschläge Wind Luftdruck Luftfeuchtigkeit
    00:00 +27°C° 0 mm 2 m/S 756 mmHg 85%
    01:00 +27°C° 0.5 mm 2 m/S 756 mmHg 86%
    02:00 +27°C° 0.5 mm 2 m/S 755 mmHg 87%
    03:00 +27°C° 0.5 mm 2 m/S 755 mmHg 88%
    04:00 +26°C° 0.2 mm 2 m/S 755 mmHg 88%
    05:00 +26°C° 0.2 mm 2 m/S 755 mmHg 88%
    06:00 +26°C° 0 mm 2 m/S 756 mmHg 89%
    07:00 +27°C° 0.6 mm 2 m/S 756 mmHg 88%
    08:00 +28°C° 0.6 mm 2 m/S 757 mmHg 87%
    09:00 +28°C° 0.6 mm 3 m/S 757 mmHg 85%
    10:00 +30°C° 0 mm 3 m/S 756 mmHg 79%
    11:00 +31°C° 0 mm 3 m/S 756 mmHg 72%
    12:00 +34°C° 0 mm 3 m/S 755 mmHg 66%
    13:00 +34°C° 0 mm 3 m/S 755 mmHg 65%
    14:00 +34°C° 0 mm 3 m/S 754 mmHg 64%
    15:00 +35°C° 0 mm 2 m/S 754 mmHg 63%
    16:00 +33°C° 0.9 mm 3 m/S 754 mmHg 69%
    17:00 +31°C° 0.9 mm 3 m/S 754 mmHg 75%
    18:00 +30°C° 0.9 mm 3 m/S 754 mmHg 81%
    19:00 +29°C° 0.1 mm 3 m/S 755 mmHg 82%
    20:00 +29°C° 0.1 mm 3 m/S 756 mmHg 84%
    21:00 +28°C° 0.1 mm 3 m/S 757 mmHg 85%
    22:00 +28°C° 0 mm 3 m/S 756 mmHg 85%
    23:00 +28°C° 0 mm 2 m/S 756 mmHg 84%

    Morgen, 25 September, Mittwoch

    Zeit Temperatur Niederschläge Wind Luftdruck Luftfeuchtigkeit
    00:00 +28°C° 0 mm 2 m/S 756 mmHg 84%
    01:00 +28°C° 0.7 mm 2 m/S 756 mmHg 86%
    02:00 +27°C° 0.7 mm 2 m/S 756 mmHg 88%
    03:00 +27°C° 0.7 mm 2 m/S 756 mmHg 90%
    04:00 +27°C° 3.4 mm 2 m/S 756 mmHg 91%
    05:00 +27°C° 3.4 mm 2 m/S 756 mmHg 92%
    06:00 +27°C° 3.4 mm 2 m/S 756 mmHg 92%
    07:00 +27°C° 3.8 mm 3 m/S 757 mmHg 93%
    08:00 +27°C° 3.8 mm 4 m/S 758 mmHg 93%
    09:00 +26°C° 3.8 mm 4 m/S 758 mmHg 94%
    10:00 +26°C° 4.3 mm 4 m/S 758 mmHg 95%
    11:00 +26°C° 4.3 mm 4 m/S 758 mmHg 95%
    12:00 +26°C° 4.3 mm 4 m/S 758 mmHg 96%
    13:00 +26°C° 8.1 mm 4 m/S 758 mmHg 96%
    14:00 +26°C° 8.1 mm 4 m/S 758 mmHg 96%
    15:00 +26°C° 8.1 mm 4 m/S 757 mmHg 96%
    16:00 +26°C° 0.4 mm 4 m/S 757 mmHg 95%
    17:00 +26°C° 0.4 mm 3 m/S 758 mmHg 95%
    18:00 +26°C° 0.4 mm 3 m/S 758 mmHg 95%
    19:00 +26°C° 0.1 mm 2 m/S 758 mmHg 95%
    20:00 +26°C° 0.1 mm 2 m/S 759 mmHg 96%
    21:00 +26°C° 0.1 mm 2 m/S 760 mmHg 96%
    22:00 +26°C° 0 mm 2 m/S 760 mmHg 96%
    23:00 +25°C° 0 mm 2 m/S 759 mmHg 96%

    übermorgen, 26 September, Donnerstag

    Zeit Temperatur Niederschläge Wind Luftdruck Luftfeuchtigkeit
    00:00 +25°C° 0 mm 2 m/S 759 mmHg 96%
    01:00 +25°C° 0.1 mm 2 m/S 759 mmHg 96%
    02:00 +25°C° 0.1 mm 2 m/S 759 mmHg 96%
    03:00 +25°C° 0.1 mm 2 m/S 759 mmHg 96%
    04:00 +25°C° 0 mm 1 m/S 759 mmHg 96%
    05:00 +25°C° 0 mm 1 m/S 759 mmHg 96%
    06:00 +25°C° 0 mm 1 m/S 759 mmHg 96%
    07:00 +26°C° 0 mm 1 m/S 759 mmHg 92%
    08:00 +27°C° 0 mm 1 m/S 760 mmHg 88%
    09:00 +28°C° 0 mm 2 m/S 760 mmHg 84%
    10:00 +28°C° 0.1 mm 2 m/S 760 mmHg 81%
    11:00 +29°C° 0.1 mm 2 m/S 759 mmHg 78%
    12:00 +30°C° 0.1 mm 2 m/S 759 mmHg 75%
    13:00 +30°C° 0.9 mm 2 m/S 758 mmHg 75%
    14:00 +30°C° 0.9 mm 3 m/S 757 mmHg 76%
    15:00 +30°C° 0.9 mm 3 m/S 757 mmHg 77%
    16:00 +29°C° 0.7 mm 3 m/S 757 mmHg 81%
    17:00 +28°C° 0.7 mm 3 m/S 757 mmHg 84%
    18:00 +27°C° 0.7 mm 4 m/S 757 mmHg 88%
    19:00 +27°C° 0 mm 3 m/S 758 mmHg 90%
    20:00 +26°C° 0 mm 3 m/S 758 mmHg 91%
    21:00 +26°C° 0 mm 2 m/S 759 mmHg 93%
    22:00 +26°C° 0 mm 2 m/S 759 mmHg 93%
    23:00 +25°C° 0 mm 2 m/S 758 mmHg 94%

    27 September, Freitag

    Zeit Temperatur Niederschläge Wind Luftdruck Luftfeuchtigkeit
    00:00 +25°C° 0 mm 2 m/S 758 mmHg 94%
    01:00 +25°C° 0 mm 2 m/S 758 mmHg 95%
    02:00 +25°C° 0 mm 1 m/S 758 mmHg 95%
    03:00 +25°C° 0 mm 1 m/S 757 mmHg 95%
    04:00 +25°C° 0 mm 1 m/S 757 mmHg 95%
    05:00 +25°C° 0 mm 1 m/S 757 mmHg 95%
    06:00 +25°C° 0 mm 1 m/S 757 mmHg 95%
    07:00 +26°C° 0.1 mm 1 m/S 758 mmHg 90%
    08:00 +27°C° 0.1 mm 1 m/S 758 mmHg 85%
    09:00 +27°C° 0.1 mm 0 m/S 759 mmHg 80%
    10:00 +28°C° 0.8 mm 0 m/S 758 mmHg 76%
    11:00 +29°C° 0.8 mm 0 m/S 758 mmHg 72%
    12:00 +30°C° 0.8 mm 0 m/S 757 mmHg 68%
    13:00 +32°C° 1.1 mm 1 m/S 756 mmHg 69%
    14:00 +31°C° 1.1 mm 1 m/S 756 mmHg 69%
    15:00 +31°C° 1.1 mm 2 m/S 755 mmHg 70%
    16:00 +30°C° 0.3 mm 2 m/S 755 mmHg 74%
    17:00 +30°C° 0.3 mm 2 m/S 755 mmHg 79%
    18:00 +29°C° 0.3 mm 2 m/S 754 mmHg 83%
    19:00 +28°C° 0.1 mm 2 m/S 755 mmHg 85%
    20:00 +27°C° 0.1 mm 2 m/S 755 mmHg 87%
    21:00 +27°C° 0.1 mm 2 m/S 756 mmHg 89%
    22:00 +27°C° 0 mm 2 m/S 756 mmHg 90%
    23:00 +26°C° 0 mm 1 m/S 756 mmHg 90%

    28 September, Samstag

    Zeit Temperatur Niederschläge Wind Luftdruck Luftfeuchtigkeit
    00:00 +26°C° 0 mm 1 m/S 756 mmHg 91%
    01:00 +26°C° 0 mm 1 m/S 755 mmHg 91%
    02:00 +24°C° 0 mm 0 m/S 755 mmHg 91%
    03:00 +24°C° 0 mm 0 m/S 755 mmHg 91%
    04:00 +24°C° 0 mm 0 m/S 755 mmHg 91%
    05:00 +26°C° 0 mm 1 m/S 755 mmHg 91%
    06:00 +26°C° 0 mm 1 m/S 755 mmHg 91%
    07:00 +27°C° 0 mm 1 m/S 756 mmHg 88%
    08:00 +27°C° 0 mm 1 m/S 756 mmHg 85%
    09:00 +28°C° 0 mm 1 m/S 756 mmHg 82%
    10:00 +29°C° 0.2 mm 2 m/S 756 mmHg 79%
    11:00 +30°C° 0.2 mm 2 m/S 756 mmHg 76%
    12:00 +31°C° 0.2 mm 2 m/S 755 mmHg 73%
    13:00 +31°C° 0.2 mm 2 m/S 755 mmHg 71%
    14:00 +31°C° 0.2 mm 2 m/S 754 mmHg 69%
    15:00 +32°C° 0.2 mm 1 m/S 754 mmHg 68%
    16:00 +31°C° 0.5 mm 1 m/S 754 mmHg 73%
    17:00 +30°C° 0.5 mm 1 m/S 754 mmHg 78%
    18:00 +29°C° 0.5 mm 1 m/S 754 mmHg 83%
    19:00 +28°C° 1 mm 1 m/S 755 mmHg 84%
    20:00 +28°C° 1 mm 1 m/S 755 mmHg 85%
    21:00 +26°C° 1 mm 0 m/S 756 mmHg 86%
    22:00 +26°C° 0.1 mm 0 m/S 756 mmHg 86%
    23:00 +26°C° 0.1 mm 0 m/S 756 mmHg 86%

    29 September, Sonntag

    Zeit Temperatur Niederschläge Wind Luftdruck Luftfeuchtigkeit
    00:00 +26°C° 0.1 mm 0 m/S 756 mmHg 86%
    01:00 +28°C° 0.4 mm 1 m/S 756 mmHg 86%
    02:00 +27°C° 0.4 mm 1 m/S 755 mmHg 87%
    03:00 +27°C° 0.4 mm 2 m/S 755 mmHg 88%
    04:00 +27°C° 0.7 mm 1 m/S 755 mmHg 88%
    05:00 +27°C° 0.7 mm 1 m/S 755 mmHg 88%
    06:00 +27°C° 0.7 mm 1 m/S 755 mmHg 88%
    07:00 +27°C° 1 mm 2 m/S 756 mmHg 88%
    08:00 +27°C° 1 mm 2 m/S 757 mmHg 87%
    09:00 +28°C° 1 mm 2 m/S 757 mmHg 87%
    10:00 +27°C° 0.5 mm 3 m/S 757 mmHg 87%
    11:00 +27°C° 0.5 mm 3 m/S 757 mmHg 88%
    12:00 +27°C° 0.5 mm 3 m/S 757 mmHg 88%
    13:00 +27°C° 0.7 mm 4 m/S 757 mmHg 88%
    14:00 +27°C° 0.7 mm 4 m/S 756 mmHg 88%
    15:00 +27°C° 0.7 mm 4 m/S 755 mmHg 87%
    16:00 +26°C° 0.3 mm 4 m/S 755 mmHg 89%
    17:00 +26°C° 0.3 mm 4 m/S 755 mmHg 91%
    18:00 +25°C° 0.3 mm 3 m/S 755 mmHg 92%
    19:00 +25°C° 0.3 mm 3 m/S 756 mmHg 92%
    20:00 +25°C° 0.3 mm 3 m/S 756 mmHg 93%
    21:00 +25°C° 0.3 mm 2 m/S 756 mmHg 93%
    22:00 +25°C° 0 mm 3 m/S 756 mmHg 92%
    23:00 +25°C° 0 mm 4 m/S 755 mmHg 92%
    Mehr zeigen